TimeEST,TemperatureF,Dew PointF,Humidity,Sea Level PressureIn,VisibilityMPH,Wind Direction,Wind SpeedMPH,Gust SpeedMPH,PrecipitationIn,Events,Conditions,WindDirDegrees,DateUTC
12:53 AM,72.0,66.0,81,29.88,10.0,Calm,Calm,-,N/A,,Clear,0,2012-11-07 05:53:00
1:53 AM,72.0,66.0,81,29.86,10.0,West,4.6,-,N/A,,Clear,270,2012-11-07 06:53:00
2:53 AM,73.9,66.0,76,29.86,10.0,WNW,8.1,-,N/A,,Scattered Clouds,290,2012-11-07 07:53:00
3:53 AM,73.0,64.9,76,29.86,10.0,NNW,4.6,-,N/A,,Clear,330,2012-11-07 08:53:00
4:53 AM,73.0,63.0,71,29.88,10.0,NW,5.8,-,N/A,,Clear,310,2012-11-07 09:53:00
5:53 AM,73.9,63.0,68,29.89,10.0,NNW,10.4,17.3,N/A,,Mostly Cloudy,330,2012-11-07 10:53:00
6:53 AM,72.0,64.0,76,29.91,10.0,NNW,6.9,-,N/A,,Mostly Cloudy,340,2012-11-07 11:53:00
7:25 AM,71.6,62.6,73,29.92,10.0,North,8.1,-,N/A,,Mostly Cloudy,10,2012-11-07 12:25:00
7:49 AM,71.6,62.6,73,29.93,10.0,North,10.4,16.1,N/A,,Mostly Cloudy,350,2012-11-07 12:49:00
7:53 AM,71.1,62.1,73,29.93,10.0,North,11.5,17.3,N/A,,Mostly Cloudy,360,2012-11-07 12:53:00
8:53 AM,73.9,60.1,62,29.96,10.0,North,8.1,16.1,N/A,,Partly Cloudy,360,2012-11-07 13:53:00
9:53 AM,75.0,59.0,57,29.97,10.0,North,9.2,-,N/A,,Partly Cloudy,10,2012-11-07 14:53:00
10:53 AM,75.9,60.1,58,29.96,10.0,North,6.9,-,N/A,,Clear,360,2012-11-07 15:53:00
11:53 AM,77.0,60.1,56,29.95,10.0,North,8.1,-,N/A,,Partly Cloudy,350,2012-11-07 16:53:00
12:53 PM,75.9,59.0,56,29.92,10.0,North,5.8,-,N/A,,Clear,350,2012-11-07 17:53:00
1:53 PM,75.9,57.9,54,29.90,10.0,NW,6.9,-,N/A,,Clear,310,2012-11-07 18:53:00
2:53 PM,73.9,57.9,57,29.90,10.0,NW,11.5,17.3,N/A,,Clear,320,2012-11-07 19:53:00
3:53 PM,72.0,57.9,61,29.90,10.0,NNW,9.2,18.4,N/A,,Partly Cloudy,330,2012-11-07 20:53:00
4:53 PM,71.1,57.0,61,29.92,10.0,NW,11.5,19.6,N/A,,Scattered Clouds,320,2012-11-07 21:53:00
6:53 PM,71.1,55.9,59,29.95,10.0,NNW,9.2,-,N/A,,Mostly Cloudy,330,2012-11-07 23:53:00
7:53 PM,70.0,55.9,61,29.96,10.0,NNW,9.2,16.1,N/A,,Mostly Cloudy,330,2012-11-08 00:53:00
8:53 PM,70.0,55.0,59,29.99,10.0,NW,10.4,17.3,N/A,,Mostly Cloudy,320,2012-11-08 01:53:00
9:53 PM,69.1,55.0,61,30.00,10.0,NNW,10.4,16.1,N/A,,Scattered Clouds,340,2012-11-08 02:53:00
10:53 PM,68.0,55.0,63,30.00,10.0,NNE,8.1,-,N/A,,Scattered Clouds,20,2012-11-08 03:53:00
11:53 PM,68.0,52.0,56,30.00,10.0,NNE,10.4,-,N/A,,Overcast,30,2012-11-08 04:53:00